Main page
METAR-TAF:

METAR-TAF

Airports :

RAF Spadeadam

Spadeadam, England

latitude: 55-03N, longitude: 002-33W, elevation: 325 m

Current weather observation

The report was made 32 minutes ago, at 20:50 UTC
Wind 12 kt from the North/Northeast
Temperature 6°C
Humidity 100%
Pressure 994 hPa
Visibility: 5000 m
heavy rain

METAR: EGOM 202050Z AUTO 03012KT 5000 +RA FEW003/// BKN025/// 06/06 Q0994

Time: 22:22 (21:22 UTC)


TAF: missing

Weather observations and forecasts of more than 4000 airports (METAR and TAF reports).

The available stations are represented by yellow and red dots on the map.

Hover mouse over dot to see the name of the station.

Then click to see weather observations and forecasts.

To change the map : click on the green buttons with a black cross to zoom in, on the green button with a dash to zoom out, or on the green arrows for adjacent maps.


METAR-TAF: